FENGYUN 1C DEB, 31268

Orbit data source: Space-Track

FENGYUN 1C DEB, 31268 is space debris in SSO originally from a launch on Mon, 10 May 1999 UTC launched from the Taiyaun Space Center, China (TSC). Fengyun 1C debris stems from the Chinese weather satellite Fengyun-1C, which was intentionally destroyed by a Chinese anti-satellite missile in 2007. This event dramatically increased the amount of space debris, with thousands of trackable fragments posing hazards to satellites and human spaceflight. The Fengyun 1C debris cloud has become a focal point in discussions about space sustainability and the need for international regulations to prevent the creation of new debris.

Loading next visibility...
Identifier
31268, 1999-025BNA
Orbit
SSO
Country
Flag of CNCN / PRC
Related business
Manufacturer
Unknown
Mission
Spacecraft
Bus & Motor
Unknown
Mass
Unknown
Launch date (UTC)
1999-05-10 (27 years ago)
Launch vehicle
Unknown
Launch site
Taiyaun Space Center, China (TSC)
Object type
Payload
Rocket body
Debris
Shape & HBR
Unknown shape, 0.1 m
Radar Cross Section
Small (<0.1 m²)

Expand to show TLE details & history
Last TLE update: 2 weeks ago

TLE from 2 weeks ago
0 FENGYUN 1C DEB
1 31268U 99025BNA 26221.34680680  .00000453  00000-0  29434-3 0  9990
2 31268  98.7335 260.5468 0047902 227.8337 131.8760 14.06905590654013
Epoch: 2026-08-09T08:19Z
TLE epoch observation values (Epoch: 2026-08-09T08:19:24.107Z)
Latitude
0.00006°
Longitude
177.85123°
Altitude
896.148 km
Speed
7.392 km/s
True Right ascension
17h 22m 11s
True Declination
0° 00' 00"
Sunlit
Object was in full shadow at epoch
Visualization orbit readout
Latitude
Unknown
Longitude
Unknown
Altitude
Unknown
Speed
Unknown
Apparent Right ascension
Unknown
Apparent Declination
Unknown
Sunlit
N/A
Visualization observer readout
Local Sidereal Time
16:39:50
Azimuth
Unknown
Elevation
Unknown
Doppler factor
Unknown
Orbital elements
Apogee altitude
901.864 km
Perigee altitude
832.451 km
Semi-major axis
7,245.294 km
Eccentricity
0.00479
Inclination
98.7335°
RAAN
260.5468°
Arg. of periapsis
227.8337°
True anomaly
132.28309°
Mean anomaly
131.876°
Eccentric anomaly
132.07971°
Mean motion
3.51932 °/min
Orbital period
102.29 mins
BSTAR
0.00029434
Loading maneuver chart data...
Computing Atmospheric mass density...
Loading historical data...
Loading historical data...
Loading historical data...
Loading historical data...
Loading historical data...
Loading historical data...
Loading historical data...

Documentation

Showing up to 5 results
|